| time (UTC) | temp F | wind direction | speed MPH | gust MPH | rain 1hr in | rain 24hr in | rain mn in | humidity % | barometer mb |
| 20260505035019 | 67 | 180 | 9.0 | 19.0 | 0.00 | 0.00 | 0.00 | 44 | 1001.7 |
| 20260505034018 | 67 | 180 | 9.0 | 15.0 | 0.00 | 0.00 | 0.00 | 43 | 1001.5 |
| 20260505033039 | 67 | 180 | 9.0 | 17.0 | 0.00 | 0.00 | 0.00 | 43 | 1001.6 |
| 20260505032019 | 68 | 180 | 10.0 | 17.0 | 0.00 | 0.00 | 0.00 | 43 | 1001.8 |
| 20260505031018 | 68 | 180 | 10.0 | 18.0 | 0.00 | 0.00 | 0.00 | 43 | 1001.7 |
| 20260505030018 | 68 | 203 | 10.0 | 16.0 | 0.00 | 0.00 | 0.00 | 43 | 1001.7 |
| 20260505025019 | 68 | 180 | 11.0 | 17.0 | 0.00 | 0.00 | 0.00 | 43 | 1001.8 |
| 20260505024038 | 68 | 225 | 9.0 | 20.0 | 0.00 | 0.00 | 0.00 | 42 | 1001.8 |
| 20260505023018 | 68 | 180 | 11.0 | 21.0 | 0.00 | 0.00 | 0.00 | 43 | 1001.9 |
| 20260505022018 | 66 | 180 | 8.0 | 14.0 | 0.00 | 0.00 | 0.00 | 44 | 1001.8 |
| 20260505021018 | 66 | 180 | 7.0 | 12.0 | 0.00 | 0.00 | 0.00 | 44 | 1001.8 |
| 20260505020018 | 66 | 180 | 8.0 | 13.0 | 0.00 | 0.00 | 0.00 | 44 | 1001.8 |
| 20260505015018 | 65 | 180 | 6.0 | 11.0 | 0.00 | 0.00 | 0.00 | 44 | 1001.9 |
| 20260505014019 | 64 | 180 | 6.0 | 10.0 | 0.00 | 0.00 | 0.00 | 45 | 1001.7 |
| 20260505013018 | 64 | 180 | 5.0 | 7.0 | 0.00 | 0.00 | 0.00 | 47 | 1001.8 |
| 20260505012018 | 65 | 180 | 4.0 | 9.0 | 0.00 | 0.00 | 0.00 | 46 | 1001.9 |
| 20260505011038 | 65 | 180 | 4.0 | 6.0 | 0.00 | 0.00 | 0.00 | 46 | 1001.8 |
| 20260505010018 | 67 | 158 | 4.0 | 6.0 | 0.00 | 0.00 | 0.00 | 43 | 1001.7 |
| 20260505005018 | 68 | 158 | 2.0 | 3.0 | 0.00 | 0.00 | 0.00 | 41 | 1001.8 |
| 20260505004018 | 69 | 158 | 3.0 | 4.0 | 0.00 | 0.00 | 0.00 | 39 | 1001.7 |
| 20260505003018 | 70 | 158 | 2.0 | 3.0 | 0.00 | 0.00 | 0.00 | 37 | 1001.7 |
| 20260505002019 | 71 | 158 | 3.0 | 4.0 | 0.00 | 0.00 | 0.00 | 35 | 1001.6 |
| 20260505001021 | 72 | 158 | 2.0 | 4.0 | 0.00 | 0.00 | 0.00 | 33 | 1001.6 |
| 20260505000018 | 73 | 203 | 3.0 | 4.0 | 0.00 | 0.00 | 0.00 | 32 | 1001.7 |
| 20260504235018 | 74 | 158 | 2.0 | 3.0 | 0.00 | 0.00 | 0.00 | 31 | 1001.5 |
| 20260504234018 | 75 | 203 | 2.0 | 5.0 | 0.00 | 0.00 | 0.00 | 30 | 1001.5 |
| 20260504233017 | 75 | 225 | 3.0 | 11.0 | 0.00 | 0.00 | 0.00 | 30 | 1001.4 |
| 20260504232017 | 76 | 225 | 3.0 | 5.0 | 0.00 | 0.00 | 0.00 | 29 | 1001.4 |
| 20260504231018 | 76 | 225 | 3.0 | 7.0 | 0.00 | 0.00 | 0.00 | 29 | 1001.4 |
| 20260504230038 | 76 | 225 | 3.0 | 9.0 | 0.00 | 0.00 | 0.00 | 28 | 1001.4 |
| 20260504225018 | 76 | 225 | 4.0 | 9.0 | 0.00 | 0.00 | 0.00 | 28 | 1001.5 |
| 20260504224037 | 76 | 248 | 5.0 | 12.0 | 0.00 | 0.00 | 0.00 | 29 | 1001.6 |
| 20260504223017 | 76 | 248 | 7.0 | 16.0 | 0.00 | 0.00 | 0.00 | 29 | 1001.8 |
| 20260504222017 | 76 | 225 | 7.0 | 15.0 | 0.00 | 0.00 | 0.00 | 28 | 1001.8 |
| 20260504221017 | 76 | 225 | 9.0 | 17.0 | 0.00 | 0.00 | 0.00 | 29 | 1001.8 |
| 20260504220017 | 76 | 248 | 7.0 | 13.0 | 0.00 | 0.00 | 0.00 | 30 | 1001.8 |
| 20260504215017 | 76 | 248 | 6.0 | 11.0 | 0.00 | 0.00 | 0.00 | 30 | 1001.8 |
| 20260504214017 | 76 | 225 | 8.0 | 15.0 | 0.00 | 0.00 | 0.00 | 29 | 1001.9 |
| 20260504213017 | 76 | 270 | 8.0 | 15.0 | 0.00 | 0.00 | 0.00 | 30 | 1002.0 |
| 20260504212017 | 77 | 225 | 7.0 | 15.0 | 0.00 | 0.00 | 0.00 | 31 | 1001.9 |
| 20260504211017 | 76 | 248 | 10.0 | 16.0 | 0.00 | 0.00 | 0.00 | 30 | 1002.1 |
| 20260504210017 | 76 | 248 | 9.0 | 18.0 | 0.00 | 0.00 | 0.00 | 31 | 1002.0 |
| 20260504205017 | 76 | 248 | 6.0 | 15.0 | 0.00 | 0.00 | 0.00 | 32 | 1002.1 |
| 20260504204017 | 75 | 225 | 10.0 | 19.0 | 0.00 | 0.00 | 0.00 | 33 | 1002.2 |
| 20260504203037 | 75 | 270 | 9.0 | 17.0 | 0.00 | 0.00 | 0.00 | 33 | 1002.3 |
| 20260504202017 | 75 | 248 | 9.0 | 17.0 | 0.00 | 0.00 | 0.00 | 33 | 1002.5 |
| 20260504201017 | 75 | 203 | 10.0 | 21.0 | 0.00 | 0.00 | 0.00 | 34 | 1002.6 |
| 20260504200017 | 74 | 248 | 10.0 | 19.0 | 0.00 | 0.00 | 0.00 | 35 | 1002.7 |
| 20260504195057 | 74 | 225 | 12.0 | 18.0 | 0.00 | 0.00 | 0.00 | 35 | 1002.8 |
| 20260504194018 | 74 | 248 | 7.0 | 17.0 | 0.00 | 0.00 | 0.00 | 35 | 1003.0 |
| 20260504193017 | 74 | 225 | 11.0 | 20.0 | 0.00 | 0.00 | 0.00 | 35 | 1003.1 |
| 20260504192019 | 73 | 225 | 12.0 | 22.0 | 0.00 | 0.00 | 0.00 | 37 | 1003.3 |
| 20260504191039 | 73 | 248 | 12.0 | 24.0 | 0.00 | 0.00 | 0.00 | 38 | 1003.4 |
| 20260504190019 | 72 | 225 | 9.0 | 17.0 | 0.00 | 0.00 | 0.00 | 39 | 1003.5 |
| 20260504185019 | 73 | 225 | 8.0 | 15.0 | 0.00 | 0.00 | 0.00 | 39 | 1003.5 |
| 20260504184018 | 73 | 248 | 7.0 | 16.0 | 0.00 | 0.00 | 0.00 | 39 | 1003.6 |
| 20260504183019 | 72 | 270 | 6.0 | 12.0 | 0.00 | 0.00 | 0.00 | 39 | 1003.7 |
| 20260504182019 | 73 | 248 | 11.0 | 33.0 | 0.00 | 0.00 | 0.00 | 39 | 1003.9 |
| 20260504181019 | 72 | 270 | 10.0 | 17.0 | 0.00 | 0.00 | 0.00 | 40 | 1004.0 |
| 20260504180039 | 71 | 270 | 9.0 | 20.0 | 0.00 | 0.00 | 0.00 | 40 | 1004.0 |
| 20260504175019 | 72 | 248 | 10.0 | 17.0 | 0.00 | 0.00 | 0.00 | 40 | 1004.0 |
| 20260504174019 | 71 | 248 | 9.0 | 19.0 | 0.00 | 0.00 | 0.00 | 40 | 1004.1 |
| 20260504173039 | 71 | 248 | 8.0 | 16.0 | 0.00 | 0.00 | 0.00 | 40 | 1004.1 |
| 20260504172018 | 71 | 225 | 7.0 | 17.0 | 0.00 | 0.00 | 0.00 | 40 | 1004.1 |
| 20260504171018 | 70 | 248 | 9.0 | 14.0 | 0.00 | 0.00 | 0.00 | 41 | 1004.3 |
| 20260504151038 | 64 | 248 | 7.0 | 18.0 | 0.00 | 0.00 | 0.00 | 44 | 1005.5 |
| 20260504141018 | 60 | 225 | 9.0 | 17.0 | 0.00 | 0.00 | 0.00 | 46 | 1005.8 |
| 20260504081018 | 53 | 225 | 6.0 | 11.0 | 0.00 | 0.00 | 0.00 | 50 | 1006.5 |
| 20260504050018 | 54 | 225 | 1.0 | 3.0 | 0.00 | 0.00 | 0.00 | 52 | 1007.1 |
| 20260504045018 | 54 | 248 | 2.0 | 6.0 | 0.00 | 0.00 | 0.00 | 53 | 1007.1 |
| 20260504044018 | 53 | 0.0 | 0.0 | 0.00 | 0.00 | 0.00 | 57 | 1007.1 | |
| 20260504043018 | 53 | 0.0 | 1.0 | 0.00 | 0.00 | 0.00 | 59 | 1007.2 | |
| 20260504042018 | 52 | 0.0 | 0.0 | 0.00 | 0.00 | 0.00 | 59 | 1007.2 | |
| 20260504041018 | 52 | 158 | 1.0 | 2.0 | 0.00 | 0.00 | 0.00 | 60 | 1007.3 |
| 20260504040018 | 52 | 158 | 1.0 | 3.0 | 0.00 | 0.00 | 0.00 | 61 | 1007.4 |